AirNav   Textron
 
 1591 users online  

74FD Clarksville Airport
Clarksville, Florida, USA


FAA INFORMATION EFFECTIVE 14 SEPTEMBER 2017

Location

FAA Identifier: 74FD
Lat/Long: 30-27-50.7010N / 085-10-37.7130W
30-27.845017N / 085-10.628550W
30.4640836 / -85.1771425
(estimated)
Elevation: 90 ft. / 27 m (estimated)
Variation: 01W (1990)
From city: 2 miles N of CLARKSVILLE, FL
Time zone: UTC -5 (UTC -6 during Standard Time)
Zip code: 32430

Airport Operations

Airport use: Private use. Permission required prior to landing
Activation date: 03/1993
Control tower: no
ARTCC: JACKSONVILLE CENTER
FSS: GAINESVILLE FLIGHT SERVICE STATION
Attendance: UNATNDD
Segmented circle: no

Airport Communications

WX AWOS-AV at F95 (4 nm NE): 119.350 (850-674-1347)

Nearby radio navigation aids

VOR radial/distance  VOR name  Freq  Var
MAIr188/19.5MARIANNA VORTAC114.0000E
HLLr055/33.2HANDLE VORTAC114.3004W

 
NDB name  Hdg/Dist  Freq  Var  ID
SOYYA176/24.632902WSMY ... -- -.--
TRI COUNTY140/31.927503WBKK -... -.- -.-
LYNNE079/32.427804WPFN .--. ..-. -.

Airport Services

Runway Information

Runway 5/23

Dimensions: 2600 x 100 ft. / 792 x 30 m
Surface: turf
RUNWAY 5  RUNWAY 23
Traffic pattern: leftleft

Airport Ownership and Management from official FAA records

Ownership: Privately-owned
Owner: RONALD STITELER
ROUTE 1 BOX 140
ALTHA, FL 32421
Phone 850-674-8385

Instrument Procedures

There are no published instrument procedures at 74FD.

Some nearby airports with instrument procedures:

KMAI - Marianna Municipal Airport (22 nm N)
KPAM - Tyndall Air Force Base (31 nm SW)
1J0 - Tri-County Airport (32 nm NW)
KECP - Northwest Florida Beaches International Airport (33 nm W)
2J9 - Quincy Municipal Airport (33 nm E)
 
Loc | Ops | Rwys | IFR | FBO | Links
Com | Nav | Svcs | Stats | Notes


 
Area around 74FD (Clarksville Airport)
 
Road maps at: MapQuest Bing Google
 
Aerial photo
No photo
 
Sectional chart

 
Airport distance calculator
Flying to Clarksville Airport? Find the distance to fly.

From to 74FD

Sunrise and sunset
Times for 22-Sep-2017
 Local
(UTC-5)
 Zulu
(UTC)
Morning civil twilight06:0611:06
Sunrise06:3011:30
Sunset18:3723:37
Evening civil twilight19:0100:01

Current date and time
Zulu (UTC)  22-Sep-2017 16:11:17
Local (UTC-5)  22-Sep-2017 11:11:17
 
METAR
KMAI 
22nm N 
221553Z AUTO 08004KT 10SM CLR 29/22 A3001 RMK AO2 SLP161 T02890222
KPAM 
31nm SW 
221556Z AUTO 09005KT 10SM CLR 29/23 A3000 RMK AO2 SLP162 T02860230
KECP 
33nm W 
221553Z 00000KT 10SM FEW018 29/23 A3000 RMK AO2 SLP168 T02940228
K2J9 
33nm E 
221555Z AUTO VRB03KT 10SM FEW025 28/22 A3003 RMK AO2
KBGE 
41nm NE 
221555Z AUTO 09005KT 10SM CLR 31/25 A3003 RMK AO2
KTLH 
43nm E 
221553Z 05006KT 10SM FEW025 FEW250 29/22 A3001 RMK AO2 SLP162 T02940217
TAF
KPAM 
31nm SW 
221000Z 2210/2316 VRB06KT 9999 FEW250 QNH2992INS BECMG 2214/2215 08009KT 9999 SCT035 QNH2988INS TEMPO 2219/2222 19010G15KT 6000 -TSRA BKN030CB BECMG 2223/2224 07006KT 9999 FEW040 QNH2990INS BECMG 2314/2315 06010G15KT 9999 SCT030 BKN090 QNH2992INS TX31/2221Z TN21/2212Z
KECP 
33nm W 
221120Z 2212/2312 00000KT 6SM BR SKC FM221300 06006KT P6SM SCT040 FM230000 VRB03KT P6SM FEW250
NOTAMs
Click for the latest NOTAMs
NOTAMs are issued by the DoD/FAA and will open in a separate window not controlled by AirNav.

 

 
 

Would you like to see your business listed on this page?

 If your business provides an interesting product or service to pilots, flight crews, aircraft, or users of the Clarksville Airport, you should consider listing it here.  To start the listing process, click on the button below
 
Add a business
 

Other Pages about Clarksville Airport

Update a link
 
Copyright © AirNav, LLC. All rights reserved. Privacy Policy  Contact